{"data":{"norad_id":62326,"epoch":"2026-05-25T04:01:17.786208Z","epoch_age_seconds":60247,"freshness":"FRESH","line1":"1 62326U 24240D   26145.16756697  .00000027  00000+0  29538-4 0  9995","line2":"2 62326  86.4992 350.9523 0001362  86.4023 273.7267 13.24407940 69598","mean_motion":13.2440794,"eccentricity":0.0001362,"inclination_deg":86.4992,"raan_deg":350.9523,"arg_perigee_deg":86.4023,"mean_anomaly_deg":273.7267,"bstar":2.9538e-5,"rev_number":6959,"period_min":108.72782897994,"perigee_km":1166.9022361186,"apogee_km":1168.9577847722,"semimajor_km":7546.0670104454,"source":"CELESTRAK","updated_at":"2026-05-25T13:38:02.936649Z"}}